Regional Weather Roundup
Issued by NWS

Current Version | Previous Version | Text Only | Print | Product List | Glossary On
Versions: 1 2 3 4 5 6 7 8 9 10 11 12 13 14 15 16 17 18 19 20 21 22 23 24 25 26 27 28 29 30 31 32 33 34 35 36 37 38 39 40 41 42 43 44 45 46 47 48 49 50
000
ASUS43 KFSD 040610
RWRSD

WEATHER ROUNDUP FOR SOUTH DAKOTA
NATIONAL WEATHER SERVICE SIOUX FALLS SD
100 AM CDT TUE OCT 04 2022

NOTE: "FAIR" INDICATES FEW OR NO CLOUDS BELOW 12,000 FEET WITH NO
SIGNIFICANT WEATHER AND/OR OBSTRUCTIONS TO VISIBILITY.


SDZ001>005-009-010-012>017-040700-
NORTHWEST AND NORTH CENTRAL SOUTH DAKOTA

CITY           SKY/WX    TMP DP  RH WIND       PRES   REMARKS
BUFFALO          N/A     53  50  89 W5        30.15S
FAITH            N/A     53  48  83 NW12      30.14S
MOBRIDGE       CLOUDY    57  53  86 NE5       30.07S
$$

SDZ012>016-024>037-041>051-057-063-072>074-040700-
SOUTHWEST AND SOUTH CENTRAL SOUTH DAKOTA

CITY           SKY/WX    TMP DP  RH WIND       PRES   REMARKS
RAPID CTY ARPT LGT RAIN  53  49  86 N8        30.18R
PIERRE         MOCLDY    57  54  89 SW5       30.08F
CUSTER         CLOUDY    46  44  93 N3        30.21F
ELLSWORTH AFB  CLOUDY    55  47  75 N9        30.14S
PHILIP         MOCLDY    51  49  92 W8        30.12S
PINE RIDGE     MOCLDY    54  51  90 W9G20     30.18R
SPEARFISH      CLOUDY    50  50 100 W5        30.21S
WINNER         MOCLDY    55  52  89 SW7       30.11F
$$

SDZ004>011-016>023-039-040-040700-
NORTHEAST SOUTH DAKOTA

CITY           SKY/WX    TMP DP  RH WIND       PRES   REMARKS
ABERDEEN       MOCLDY    60  54  80 S7        30.10S
WATERTOWN      CLOUDY    57  56  96 VRB3      30.13S
BROOKINGS      LGT RAIN N/A N/A N/A W5        30.16R
SISSETON         N/A     63  52  67 S7        30.09S
$$

SDZ017-020-022-023-036>040-048>070-040700-
SOUTHEAST SOUTH DAKOTA

CITY           SKY/WX    TMP DP  RH WIND       PRES   REMARKS
SIOUX FALLS    MOCLDY    62  50  64 CALM      30.15F
HURON          CLOUDY    58  55  90 SE7       30.11F
CHAMBERLAIN    CLOUDY    52  52 100 CALM      30.11F
MADISON        CLOUDY    57  57 100 CALM      30.15F
MITCHELL       CLOUDY    59  55  87 SE6       30.13S
YANKTON        LGT RAIN  60  55  83 SE3       30.17R
$$

ABBREVIATIONS USED IN REMARKS
   TC - TEMPERATURE IN CELSIUS
  WCI - WIND CHILL INDEX
   HX - HEAT INDEX
  VSB - VISIBILITY




USA.gov is the U.S. government's official web portal to all federal, state and local government web resources and services.